Chicago Executive, IL

9:14 PM CST on December 09, 2019 (GMT -0600)
Chicago Executive

Weather History for KPWK - October, 2019

Change the Weather History Date:

Sunday, October 27, 2019

  Actual Average Record
Temperature  
Mean Temperature 52 °F 48 °F  
Max Temperature 60 °F 57 °F 78 °F (2014)
Min Temperature 44 °F 39 °F 28 °F (2013)
Degree Days  
Heating Degree Days 13 17  
Month to date heating degree days 313 338  
Since 1 July heating degree days 320 450  
Cooling Degree Days 0 0  
Month to date cooling degree days 13 11  
Year to date cooling degree days 996 789  
Growing Degree Days 2 (Base 50)    
Moisture  
Dew Point 41 °F    
Average Humidity 73    
Maximum Humidity 86    
Minimum Humidity 39    
Precipitation  
Precipitation 0.14 in 0.10 in 0.42 in (1998)
Month to date precipitation 4.45 2.65  
Year to date precipitation 41.14 28.34  
Sea Level Pressure  
Sea Level Pressure 29.82 in    
Wind  
Wind Speed 10 mph ()    
Max Wind Speed 21 mph    
Max Gust Speed 31 mph    
Visibility 9.3 miles    
Events Rain    
T = Trace of Precipitation, MM = Missing Value Source: Averaged Metar Reports

Daily Weather History Graph

Daily Weather History Graph

Search for Another Location

Airport or City:

Astronomy

Oct. 27, 2019 Rise Set
Actual Time 7:18 AM CDT 5:52 PM CDT
Civil Twilight 6:49 AM CDT 6:20 PM CDT
Nautical Twilight 6:16 AM CDT 6:53 PM CDT
Astronomical Twilight 5:44 AM CDT 7:26 PM CDT
Moon 6:24 AM CDT (10/27) 6:02 PM CDT (10/27)
Length of Visible Light 11h 31m
Length of Day
10h 34m
Waning Crescent, 0% of the Moon is Illuminated
Oct 27
Waning Crescent
Oct 27
New
Nov 4
First Quarter
Nov 12
Full
Nov 19
Last Quarter

Hourly Weather History & Observations

Time (CDT) Temp. Windchill Dew Point Humidity Pressure Visibility Wind Dir Wind Speed Gust Speed Precip Events Conditions
12:52 AM 46.9 °F - 43.0 °F 86% 29.47 in 6.0 mi NNW 15.0 mph 31.1 mph 0.05 in Rain Light Rain
1:01 AM 46.9 °F - 43.0 °F 86% 29.46 in 9.0 mi NNW 17.3 mph 26.5 mph 0.00 in Rain Light Rain
1:52 AM 46.9 °F - 43.0 °F 86% 29.52 in 10.0 mi NW 18.4 mph 29.9 mph 0.06 in Rain Light Rain
2:52 AM 48.0 °F - 43.0 °F 83% 29.57 in 10.0 mi WNW 15.0 mph 25.3 mph 0.03 in   Overcast
3:52 AM 46.9 °F - 43.0 °F 86% 29.63 in 10.0 mi WNW 15.0 mph 26.5 mph N/A   Overcast
4:01 AM 46.9 °F - 43.0 °F 86% 29.63 in 10.0 mi WNW 15.0 mph 24.2 mph N/A   Overcast
4:52 AM 48.0 °F - 44.1 °F 86% 29.70 in 10.0 mi WNW 16.1 mph 24.2 mph N/A   Overcast
5:52 AM 48.0 °F - 43.0 °F 83% 29.73 in 10.0 mi WNW 10.4 mph 20.7 mph N/A   Overcast
6:52 AM 46.9 °F - 43.0 °F 86% 29.77 in 9.0 mi West 4.6 mph 18.4 mph N/A   Mostly Cloudy
7:15 AM 45.0 °F 42.6 °F 41.0 °F 86% 29.78 in 9.0 mi WSW 4.6 mph - N/A   Partly Cloudy
7:52 AM 45.0 °F 40.6 °F 41.0 °F 86% 29.83 in 6.0 mi WSW 8.1 mph - N/A   Scattered Clouds
8:18 AM 44.1 °F 40.1 °F 39.9 °F 85% 29.85 in 7.0 mi West 6.9 mph - N/A   Mostly Cloudy
8:52 AM 45.0 °F 41.8 °F 39.9 °F 82% 29.88 in 7.0 mi West 5.8 mph - N/A   Mostly Cloudy
8:59 AM 45.0 °F 39.7 °F 39.9 °F 82% 29.88 in 7.0 mi West 10.4 mph - N/A   Scattered Clouds
9:52 AM 46.9 °F - 37.9 °F 71% 29.92 in 10.0 mi West 10.4 mph - N/A   Clear
10:52 AM 50.0 °F - 37.0 °F 61% 29.92 in 10.0 mi WNW 9.2 mph - N/A   Clear
11:52 AM 53.1 °F - 36.0 °F 52% 29.92 in 10.0 mi WNW 6.9 mph - N/A   Clear
12:52 PM 55.0 °F - 34.0 °F 45% 29.92 in 10.0 mi SW 9.2 mph - N/A   Clear
1:52 PM 57.9 °F - 33.1 °F 39% 29.92 in 10.0 mi WSW 8.1 mph - N/A   Clear
2:52 PM 59.0 °F - 35.1 °F 41% 29.92 in 10.0 mi SW 9.2 mph - N/A   Clear
3:52 PM 60.1 °F - 37.9 °F 44% 29.93 in 10.0 mi SW 9.2 mph 16.1 mph N/A   Clear
4:52 PM 59.0 °F - 39.9 °F 49% 29.94 in 10.0 mi SSW 6.9 mph - N/A   Clear
5:52 PM 55.0 °F - 39.9 °F 57% 29.95 in 10.0 mi South 5.8 mph - N/A   Clear
6:52 PM 51.1 °F - 41.0 °F 68% 29.97 in 10.0 mi South 3.5 mph - N/A   Clear
7:52 PM 48.9 °F - 42.1 °F 77% 29.97 in 10.0 mi Calm Calm - N/A   Clear
8:52 PM 48.0 °F - 43.0 °F 83% 29.97 in 10.0 mi Calm Calm - N/A   Clear
9:52 PM 46.9 °F - 42.1 °F 83% 29.97 in 10.0 mi South 4.6 mph - N/A   Clear
10:52 PM 46.9 °F - 42.1 °F 83% 29.98 in 10.0 mi Calm Calm - N/A   Clear
11:52 PM 48.9 °F - 44.1 °F 83% 29.98 in 10.0 mi Calm Calm - N/A   Clear